カタログに戻る

ONEWEB-0176

運用中通信PO
NORAD 48210·PAYLOAD·🇬🇧 United Kingdom

打ち上げ Apr 25, 2021 から Vostochny Cosmodrome

Loading…

次のパス (今後24時間)

TLE

最新Source: CelesTrak SupGP

元期: Sep 14, 2026, 13:28 UTC

1 48210C 21031A   26257.56130046 -.00000878  00000+0 -23715-2 0  2570
2 48210  87.8896 271.8753 0001913  88.6587  11.5535 13.14505116    10

AllMySatでONEWEB-0176をリアルタイム追跡

Download on the App Store